Wind_Speed
13 24 15 9 11 5 13 16 15 15 10 8 21 14 9 7 2 10 12 7 4 8 6 12 16 21 23 27 28 28 25 25 27 15 9 2 4 8 12 17 20 17 18 17
20 20 13 16 14 9 8 16 16 15 17 13 15 3 17 6 6 20 6 9 11 2 9 8 12 17 22 22 24 25 23 24 22 14 6 5 5 9 14 18 21 20 19 16
23 25 18 15 16 10 8 21 18 16 19 22 13 5 6 10 11 16 10 11 1 10 12 12 11 13 14 18 20 20 19 20 17 12 8 6 5 9 13 17 21 20 20 16
21 23 17 20 15 11 13 18 22 20 25 22 14 5 6 7 17 16 15 11 5 9 12 16 12 17 19 18 14 14 16 14 14 9 8 8 7 10 15 19 20 18 17 12
25 22 14 23 19 18 11 16 18 19 13 22 10 7 3 7 2 6 15 8 3 8 16 18 13 21 28 17 13 13 13 14 9 9 7 9 10 13 16 17 19 17 13 9
18 19 15 21 19 16 16 13 15 13 9 2 15 15 4 6 6 5 12 5 2 10 16 21 22 22 29 16 12 12 11 11 8 8 6 9 11 14 16 18 17 17 15 12
15 17 18 24 16 17 17 14 5 4 1 7 23 11 11 2 11 14 13 4 1 7 16 20 24 26 31 20 17 11 8 7 6 6 6 9 12 14 14 17 14 15 15 13
14 20 20 15 30 17 7 1 7 4 4 5 15 9 7 13 16 11 19 0 6 8 9 16 25 27 32 20 17 13 8 6 6 7 8 10 11 12 13 14 14 14 14 14
18 20 20 17 5 9 14 6 9 1 4 4 2 8 3 22 23 3 12 11 5 4 10 17 28 25 30 20 16 18 14 9 3 7 10 9 8 12 14 15 12 13 12 13
18 19 21 20 13 4 13 4 11 12 3 3 9 2 12 20 15 10 8 4 6 7 13 17 23 23 26 22 20 23 21 19 13 4 19 8 7 13 13 14 11 12 12 12
9 8 18 14 15 16 18 9 13 7 6 4 4 1 17 14 9 2 1 11 14 16 16 17 20 27 25 33 23 21 21 20 20 18 19 16 10 8 8 10 10 12 11 12
5 6 9 14 18 14 8 2 5 6 5 12 4 11 6 16 11 15 7 10 18 9 14 17 15 29 27 27 27 21 18 20 19 14 13 17 15 19 10 12 12 14 14 14
4 2 5 9 11 9 9 9 5 7 9 13 11 4 5 12 14 14 12 15 9 11 18 26 24 24 26 33 31 26 20 18 17 18 18 20 18 16 12 13 13 14 15 13
10 5 6 9 23 10 11 14 9 6 1 6 13 14 16 17 14 11 15 22 15 19 18 18 19 16 18 31 31 25 24 17 16 16 18 20 23 17 18 13 10 10 12 13
8 3 7 10 10 11 13 7 8 13 9 20 13 16 11 11 8 12 14 15 10 7 12 17 17 20 28 31 29 28 22 16 17 17 16 20 19 19 15 15 14 14 14 15
0 5 9 12 13 17 11 10 7 8 22 8 10 14 7 7 11 17 15 15 16 17 19 25 22 22 28 26 31 33 24 20 16 15 13 14 15 23 20 19 15 15 16 17
5 4 9 11 15 13 1 8 5 3 10 6 7 5 9 13 17 19 20 19 20 27 33 33 28 21 22 28 33 35 21 21 19 15 13 5 15 24 24 21 19 17 17 18
8 11 9 13 15 1 8 16 3 4 8 5 6 11 14 17 17 17 14 26 29 22 22 25 28 23 26 30 27 30 23 20 18 14 4 10 17 23 23 22 19 16 16 18
9 9 8 10 10 5 4 3 11 9 4 9 11 13 16 25 23 18 22 24 25 28 28 28 25 20 32 18 34 31 29 20 16 24 19 8 17 16 19 20 17 16 18 18
14 10 11 11 7 4 7 9 4 6 11 7 11 17 25 25 24 20 20 25 29 25 31 33 30 27 38 34 19 23 23 29 17 9 11 23 19 16 15 15 15 15 19 20
16 13 15 14 16 7 6 7 4 10 4 9 15 21 21 20 15 16 21 27 25 25 29 34 27 29 26 27 21 28 31 31 15 25 44 28 21 19 14 12 12 16 19 20
8 12 7 7 3 3 10 13 5 10 10 15 16 24 21 18 19 23 26 26 25 27 33 35 31 28 29 27 28 31 29 26 25 33 26 32 16 15 14 13 15 18 19 20
8 11 14 7 5 6 11 10 12 14 14 14 24 24 23 20 22 27 24 24 29 28 29 33 33 28 26 32 24 29 27 31 31 32 21 11 11 12 14 16 17 18 19 20
11 7 3 3 10 9 6 3 10 13 16 23 23 22 21 21 25 27 26 28 28 28 26 28 22 34 17 31 24 29 29 28 22 13 17 20 19 15 15 15 18 20 20 20
9 9 11 14 15 5 8 10 13 17 19 18 22 21 21 25 26 27 28 28 26 25 27 26 27 24 30 28 25 27 18 11 17 18 22 21 19 17 16 17 18 18 18 22
10 7 3 0 6 14 12 15 19 22 24 23 17 18 22 25 27 29 27 26 25 26 24 26 26 25 24 20 19 13 17 19 21 23 20 20 19 19 20 21 20 21 21 22
Wind_Direction
358 329 333 356 339 8 343 336 343 15 310 129 91 75 57 352 67 338 159 271 10 39 4 329 311 301 310 319 332 335 331 322 319 302 305 256 329 334 354 359 1 0 354 351
331 333 349 358 329 336 358 5 24 64 19 348 341 314 310 293 280 308 131 69 92 37 0 308 299 289 311 316 323 329 322 317 314 302 276 240 302 340 352 359 359 357 357 347
310 320 310 330 321 15 1 22 19 25 4 3 1 235 326 319 282 162 132 94 76 339 7 353 317 325 342 318 319 324 314 314 307 296 264 253 303 331 337 354 353 352 348 343
307 309 314 334 330 7 342 344 351 341 352 329 344 77 259 46 117 126 108 101 278 306 332 4 5 20 7 351 324 318 315 312 307 280 271 266 292 313 341 347 345 345 347 341
298 309 304 326 300 326 351 340 336 328 343 359 347 183 260 200 256 282 120 112 282 294 312 354 6 12 10 345 334 334 333 322 309 302 275 279 304 320 331 336 339 337 333 343
285 297 303 314 301 304 310 304 317 345 70 328 327 185 53 173 38 309 116 87 348 318 315 345 6 3 6 5 354 340 338 338 329 330 315 305 303 314 326 329 333 331 332 344
298 303 292 312 298 291 291 296 342 28 53 221 2 71 44 59 29 322 237 164 145 301 309 325 355 353 5 2 2 354 342 341 326 324 316 310 309 310 315 324 325 326 332 338
290 309 325 319 317 267 288 24 46 277 328 7 44 321 39 343 11 68 127 165 352 282 308 325 333 350 350 359 356 356 333 334 324 317 312 314 308 304 307 317 326 327 336 327
268 286 291 318 319 359 340 16 55 257 296 65 75 332 5 22 12 143 116 79 17 307 327 331 330 342 353 4 4 357 351 348 7 301 284 301 310 302 308 320 329 325 328 315
286 276 294 317 331 341 11 308 351 359 352 35 142 151 7 342 323 71 88 344 29 331 312 316 330 337 348 354 12 4 354 353 323 326 334 325 334 305 300 315 321 321 318 319
307 269 296 323 355 3 2 332 320 335 277 186 174 8 343 17 2 352 56 326 346 318 292 301 315 337 342 358 354 8 346 335 341 324 310 321 287 311 295 321 321 323 316 317
278 270 291 311 331 292 336 22 146 307 276 288 328 50 315 40 37 53 76 341 324 312 282 295 297 333 341 347 342 351 349 338 331 320 324 4 353 336 322 333 323 316 315 311
264 331 317 324 348 24 249 271 320 277 284 320 38 297 21 38 81 40 11 341 317 318 305 309 312 311 334 340 344 334 338 329 334 326 336 326 335 327 316 317 301 300 301 309
227 240 289 331 297 311 319 322 274 177 300 14 101 74 74 53 44 22 5 341 320 312 325 317 323 295 301 327 327 332 326 332 326 321 312 322 322 328 334 313 302 309 320 318
199 203 320 313 358 314 313 0 30 46 37 77 87 69 48 39 8 346 336 351 322 333 347 353 330 310 309 313 309 324 324 324 328 314 310 318 332 322 321 337 329 332 322 328
187 300 330 303 317 318 326 53 35 69 3 29 46 58 18 1 343 331 342 325 299 303 307 315 312 315 312 302 304 313 313 311 317 311 303 314 323 324 327 323 319 334 326 320
221 293 314 314 306 300 269 330 247 146 4 32 71 36 312 309 326 334 318 318 310 314 314 317 329 314 303 298 302 295 306 309 306 305 303 318 292 302 311 321 326 326 322 319
210 264 272 296 306 282 277 272 224 212 340 299 274 283 289 310 334 322 310 324 323 323 320 317 321 323 306 301 305 293 295 300 304 301 256 243 302 304 308 313 318 323 316 312
249 264 266 274 294 266 128 263 241 12 269 283 275 296 313 322 328 315 308 317 329 329 332 334 327 294 294 283 290 295 297 312 283 259 261 282 298 304 308 312 321 320 315 316
245 250 267 250 276 197 120 161 194 338 243 284 298 315 324 327 335 343 333 324 328 331 330 329 320 317 319 333 328 328 337 340 340 171 10 305 296 294 303 311 312 314 313 315
224 240 248 262 258 163 172 205 257 267 246 269 309 322 328 334 335 321 316 323 326 329 320 321 322 318 318 329 325 314 315 337 299 333 321 326 269 290 297 298 319 314 313 315
221 228 265 321 293 223 261 257 287 280 272 310 330 329 332 332 331 333 335 330 330 320 319 322 329 323 320 322 325 328 328 330 312 315 326 316 278 308 319 331 322 316 317 317
252 273 277 293 320 320 10 354 322 306 316 317 324 329 332 331 327 331 335 319 322 325 314 315 318 315 340 331 332 331 324 322 325 326 351 343 301 326 330 327 321 320 319 315
252 232 332 184 25 325 341 200 265 284 297 309 315 318 327 322 326 330 326 328 329 328 321 319 324 325 321 328 315 324 323 329 331 352 343 340 334 332 327 326 324 321 319 316
321 301 219 200 242 257 210 228 260 282 295 297 301 316 317 320 331 333 328 327 327 324 323 332 338 328 321 326 314 325 334 354 336 338 337 337 333 331 329 326 321 315 317 317
328 218 169 176 190 236 267 276 290 295 298 304 312 315 316 323 335 329 328 328 328 331 335 339 336 333 329 322 330 356 340 336 334 335 336 333 330 327 325 324 321 320 320 316
Height
3218 3218 3217 3216 3217 3216 3214 3212 3207 3213 3212 3206 3208 3219 3213 3210 3202 3197 3200 3195 3205 3205 3200 3198 3195 3190 3187 3184 3182 3180 3178 3175 3172 3170 3169 3168 3168 3167 3165 3163 3160 3158 3156 3153
3219 3217 3219 3217 3215 3214 3214 3212 3210 3209 3209 3205 3201 3210 3207 3206 3202 3197 3200 3203 3206 3204 3201 3199 3194 3190 3187 3184 3181 3178 3175 3172 3168 3167 3167 3166 3166 3164 3162 3160 3158 3155 3154 3152
3221 3220 3217 3216 3214 3213 3213 3212 3210 3208 3205 3202 3202 3206 3207 3205 3198 3198 3201 3203 3204 3202 3201 3200 3194 3190 3186 3183 3179 3175 3172 3169 3167 3166 3166 3166 3165 3163 3163 3160 3157 3154 3152 3150
3219 3217 3215 3213 3213 3211 3212 3210 3208 3206 3202 3198 3203 3212 3209 3209 3204 3202 3203 3204 3204 3200 3200 3197 3193 3190 3184 3180 3175 3173 3170 3169 3167 3167 3167 3166 3166 3164 3162 3159 3156 3154 3151 3149
3217 3216 3215 3212 3211 3210 3210 3209 3208 3204 3203 3202 3205 3207 3207 3208 3209 3204 3201 3205 3203 3200 3198 3196 3192 3186 3182 3178 3174 3171 3169 3168 3166 3167 3167 3167 3165 3163 3161 3159 3156 3153 3151 3149
3216 3216 3215 3211 3209 3209 3208 3207 3206 3204 3204 3207 3201 3202 3205 3205 3204 3192 3201 3207 3202 3199 3197 3193 3189 3185 3181 3176 3174 3170 3168 3166 3165 3163 3163 3162 3162 3161 3160 3157 3155 3152 3149 3147
3214 3213 3211 3209 3208 3207 3206 3204 3204 3206 3206 3207 3206 3204 3207 3204 3202 3198 3197 3197 3200 3197 3194 3190 3188 3181 3177 3174 3172 3169 3166 3163 3161 3160 3158 3158 3158 3157 3156 3155 3152 3151 3147 3146
3214 3211 3210 3207 3204 3203 3204 3203 3206 3210 3209 3207 3205 3209 3210 3206 3203 3196 3193 3196 3199 3196 3194 3190 3184 3181 3177 3174 3170 3167 3163 3161 3163 3163 3160 3155 3154 3154 3153 3152 3149 3147 3145 3143
3212 3212 3209 3209 3204 3202 3203 3203 3205 3205 3204 3202 3207 3208 3211 3204 3200 3190 3191 3193 3197 3194 3191 3188 3182 3179 3176 3172 3169 3163 3160 3161 3161 3154 3156 3153 3150 3151 3150 3148 3146 3145 3143 3142
3210 3208 3209 3208 3206 3203 3204 3206 3205 3204 3206 3205 3210 3212 3209 3204 3198 3199 3202 3195 3195 3193 3187 3184 3182 3178 3176 3172 3168 3161 3158 3158 3157 3153 3156 3154 3148 3150 3148 3146 3144 3143 3141 3139
3208 3208 3208 3208 3206 3204 3205 3206 3206 3208 3207 3206 3207 3208 3206 3203 3197 3201 3200 3200 3194 3191 3186 3182 3180 3176 3171 3168 3166 3162 3156 3154 3153 3152 3153 3154 3143 3147 3146 3143 3141 3140 3138 3136
3208 3208 3208 3208 3206 3204 3202 3204 3204 3207 3204 3200 3201 3206 3205 3200 3199 3195 3198 3197 3193 3189 3185 3181 3177 3175 3172 3166 3163 3161 3156 3151 3149 3149 3149 3147 3143 3145 3142 3138 3137 3136 3135 3133
3209 3209 3209 3207 3207 3203 3202 3202 3203 3201 3201 3201 3204 3205 3199 3198 3199 3198 3196 3194 3191 3187 3183 3179 3174 3171 3169 3166 3162 3158 3156 3153 3149 3144 3141 3140 3140 3139 3136 3134 3134 3132 3130 3128
3207 3208 3209 3210 3206 3205 3202 3201 3199 3201 3201 3200 3201 3202 3201 3200 3201 3200 3198 3195 3191 3186 3183 3180 3173 3166 3161 3161 3160 3158 3154 3149 3147 3143 3141 3138 3137 3134 3130 3129 3128 3127 3126 3124
3206 3207 3207 3205 3205 3206 3203 3203 3199 3201 3200 3199 3203 3200 3200 3200 3199 3197 3196 3192 3188 3185 3180 3174 3169 3163 3159 3156 3153 3150 3149 3149 3146 3142 3140 3136 3133 3130 3128 3125 3124 3123 3123 3121
3204 3205 3205 3205 3205 3203 3200 3199 3200 3196 3201 3198 3198 3199 3199 3197 3195 3194 3192 3190 3186 3182 3179 3174 3169 3165 3160 3156 3152 3149 3146 3140 3142 3141 3139 3134 3132 3129 3125 3123 3121 3120 3119 3119
3203 3204 3204 3203 3202 3201 3199 3197 3196 3198 3204 3200 3195 3197 3195 3193 3193 3190 3186 3184 3180 3177 3172 3169 3166 3164 3159 3154 3148 3142 3138 3136 3135 3136 3135 3131 3130 3128 3125 3120 3117 3115 3114 3113
3200 3201 3202 3200 3200 3199 3195 3195 3194 3198 3202 3200 3197 3195 3193 3194 3194 3189 3185 3179 3175 3171 3167 3165 3162 3159 3155 3150 3145 3141 3121 3137 3134 3134 3132 3130 3129 3126 3121 3117 3113 3112 3110 3108
3199 3200 3198 3197 3197 3196 3200 3200 3204 3202 3201 3197 3196 3195 3195 3193 3190 3187 3183 3176 3171 3168 3164 3162 3157 3147 3141 3144 3138 3138 3132 3115 3127 3124 3121 3121 3127 3122 3117 3113 3109 3107 3105 3103
3197 3197 3198 3195 3195 3194 3197 3197 3200 3199 3198 3197 3192 3192 3190 3187 3183 3180 3176 3171 3166 3164 3160 3157 3151 3149 3144 3143 3139 3135 3129 3122 3117 3100 3116 3124 3119 3115 3110 3107 3104 3101 3101 3098
3192 3194 3195 3194 3193 3193 3192 3192 3192 3194 3198 3191 3190 3188 3186 3184 3182 3178 3173 3168 3163 3162 3157 3152 3147 3142 3138 3137 3133 3132 3126 3119 3118 3117 3112 3112 3111 3110 3105 3102 3100 3098 3096 3094
3191 3193 3193 3192 3192 3194 3193 3190 3193 3192 3189 3188 3186 3184 3182 3181 3178 3174 3168 3163 3159 3157 3152 3146 3143 3137 3133 3132 3130 3126 3121 3117 3118 3115 3109 3106 3103 3103 3101 3098 3096 3095 3092 3089
3190 3191 3191 3192 3191 3188 3186 3187 3187 3185 3186 3185 3183 3180 3179 3177 3173 3169 3164 3159 3156 3154 3149 3144 3136 3133 3128 3127 3125 3122 3118 3115 3111 3109 3106 3103 3103 3100 3097 3095 3093 3091 3087 3086
3185 3185 3188 3189 3192 3188 3185 3183 3184 3185 3184 3181 3178 3176 3175 3172 3168 3164 3160 3156 3153 3149 3145 3140 3139 3133 3128 3128 3123 3120 3117 3114 3111 3109 3106 3104 3100 3096 3094 3091 3088 3086 3084 3082
3182 3181 3181 3181 3186 3190 3184 3182 3183 3183 3180 3176 3174 3173 3169 3166 3164 3160 3155 3153 3149 3145 3141 3136 3131 3128 3125 3122 3120 3118 3115 3112 3109 3106 3102 3099 3096 3093 3091 3088 3085 3083 3081 3078
3180 3179 3172 3180 3184 3183 3180 3180 3180 3177 3173 3170 3169 3167 3164 3162 3160 3156 3152 3148 3144 3141 3137 3134 3131 3127 3123 3120 3116 3114 3112 3109 3105 3102 3098 3096 3093 3090 3087 3084 3081 3079 3076 3074